Pardubice, Czech Republic

1:52 AM CET on January 23, 2017 (GMT +0100)
Pardubice

Weather History for LKPD - December, 2012

Change the Weather History Date:

Thursday, December 6, 2012

  Actual Average Record
Temperature  
Mean Temperature 27 °F -  
Max Temperature 33 °F - - ()
Min Temperature 21 °F - - ()
Degree Days  
Heating Degree Days 38    
Moisture  
Dew Point 25 °F    
Average Humidity 87    
Maximum Humidity 100    
Minimum Humidity 60    
Precipitation  
Precipitation 0.00 in - - ()
Sea Level Pressure  
Sea Level Pressure 29.76 in    
Wind  
Wind Speed 7 mph ()    
Max Wind Speed 18 mph    
Max Gust Speed 31 mph    
Visibility 3.4 miles    
Events Snow    
T = Trace of Precipitation, MM = Missing Value Source: Averaged Metar Reports

Daily Weather History Graph

Daily Weather History Graph

Search for Another Location

Airport or City:

Trip Planner

Search our weather history database for the weather conditions in past years. The results will help you decide how hot, cold, wet, or windy it might be!

Date:

Astronomy

Dec. 06, 2012 Rise Set
Actual Time 7:40 AM CET 3:55 PM CET
Civil Twilight 7:02 AM CET 4:33 PM CET
Nautical Twilight 6:21 AM CET 5:14 PM CET
Astronomical Twilight 5:42 AM CET 5:54 PM CET
Moon No Moon Rise 11:52 AM CET (12/6)
Length of Visible Light 9h 31m
Length of Day
8h 15m
Waning Gibbous, 52% of the Moon is Illuminated
Dec 6
Waning Gibbous
Dec 6
Last Quarter
Dec 13
New
Dec 20
First Quarter
Dec 28
Full

Hourly Weather History & Observations

Time (CET) Temp. Windchill Dew Point Humidity Pressure Visibility Wind Dir Wind Speed Gust Speed Precip Events Conditions
12:00 AM 23.0 °F - 21.2 °F 93% 29.68 in - East 2.3 mph - N/A   Clear
1:00 AM 23.0 °F - 21.2 °F 93% 29.68 in - Calm Calm - N/A   Clear
2:00 AM 21.2 °F 16.4 °F 19.4 °F 93% 29.68 in - East 3.5 mph - N/A   Clear
3:00 AM 21.2 °F 14.9 °F 19.4 °F 93% 29.68 in 6.2 mi East 4.6 mph - N/A   Scattered Clouds
4:00 AM 23.0 °F - 21.2 °F 93% 29.68 in 6.2 mi Variable 1.2 mph - N/A   Mostly Cloudy
5:00 AM 23.0 °F - 21.2 °F 93% 29.68 in 6.2 mi ENE 2.3 mph - N/A   Mostly Cloudy
6:00 AM 24.8 °F 20.5 °F 23.0 °F 93% 29.68 in 6.2 mi East 3.5 mph - N/A   Mostly Cloudy
7:00 AM 26.6 °F 22.6 °F 24.8 °F 93% 29.68 in 6.2 mi East 3.5 mph - N/A   Mostly Cloudy
7:14 AM 26.6 °F - 24.8 °F 93% 29.68 in 2.5 mi Variable 2.3 mph - N/A Snow Light Snow Showers
7:28 AM 26.6 °F - 24.8 °F 93% 29.68 in 6.2 mi ENE 2.3 mph - N/A Snow Light Snow Showers
9:00 AM 30.2 °F - 26.6 °F 86% 29.68 in 6.2 mi Variable 1.2 mph - N/A   Mostly Cloudy
9:45 AM 33.8 °F 25.8 °F 28.4 °F 81% 29.68 in 2.5 mi WSW 10.4 mph - N/A Snow Light Snow
9:51 AM 33.8 °F 25.8 °F 28.4 °F 81% 29.68 in 1.9 mi SW 10.4 mph - N/A Snow Light Snow
9:53 AM 33.8 °F 26.4 °F 28.4 °F 81% 29.68 in 0.9 mi SW 9.2 mph - N/A Snow Snow Showers
10:00 AM 33.8 °F 26.4 °F 28.4 °F 81% 29.68 in 0.9 mi SW 9.2 mph - N/A Snow Snow Showers
10:28 AM 32.0 °F 24.2 °F 30.2 °F 93% 29.68 in 1.2 mi SW 9.2 mph - N/A Snow Light Snow
10:46 AM 32.0 °F 23.0 °F 30.2 °F 93% 29.71 in 0.7 mi SW 11.5 mph - N/A Snow Light Snow
11:00 AM 32.0 °F 22.5 °F 30.2 °F 93% 29.71 in 1.2 mi WSW 12.7 mph - N/A Snow Light Snow
11:31 AM 32.0 °F 23.0 °F 30.2 °F 93% 29.71 in 0.5 mi WSW 11.5 mph - N/A Snow Snow
11:43 AM 32.0 °F 21.2 °F 30.2 °F 93% 29.71 in 0.9 mi West 16.1 mph 27.6 mph N/A Snow Light Snow
12:00 PM 30.2 °F 19.8 °F 30.2 °F 100% 29.74 in 1.0 mi West 13.8 mph - N/A Snow Light Snow
12:02 PM 30.2 °F 20.2 °F 30.2 °F 100% 29.74 in 0.6 mi West 12.7 mph - N/A Snow Snow
12:34 PM 30.2 °F 20.8 °F 28.4 °F 93% 29.74 in 1.2 mi West 11.5 mph - N/A Snow Light Snow
12:43 PM 30.2 °F 21.3 °F 28.4 °F 93% 29.74 in 2.5 mi West 10.4 mph - N/A Snow Light Snow
12:49 PM 30.2 °F 21.9 °F 28.4 °F 93% 29.74 in 4.3 mi West 9.2 mph - N/A   Mostly Cloudy
1:00 PM 30.2 °F 20.8 °F 28.4 °F 93% 29.74 in 6.2 mi WNW 11.5 mph - N/A   Mostly Cloudy
2:00 PM 30.2 °F 20.8 °F 19.4 °F 64% 29.77 in 6.2 mi WNW 11.5 mph - N/A   Mostly Cloudy
3:00 PM 30.2 °F 18.9 °F 17.6 °F 60% 29.80 in 6.2 mi WNW 16.1 mph - N/A Snow Light Snow Showers
3:05 PM 30.2 °F 19.3 °F 19.4 °F 64% 29.80 in 2.5 mi WNW 15.0 mph - N/A Snow Light Snow Showers
3:09 PM 28.4 °F 16.6 °F 21.2 °F 74% 29.80 in 3.1 mi WNW 16.1 mph - N/A Snow Light Snow Showers
3:34 PM 28.4 °F 15.8 °F 23.0 °F 80% 29.83 in 2.5 mi West 18.4 mph 31.1 mph N/A Snow Light Snow Showers
4:00 PM 28.4 °F 16.2 °F 23.0 °F 80% 29.83 in 1.2 mi West 17.3 mph - N/A Snow Light Snow
4:12 PM 26.6 °F 15.2 °F 24.8 °F 93% 29.83 in 0.9 mi West 13.8 mph - N/A Snow Light Snow
5:00 PM 26.6 °F 14.3 °F 24.8 °F 93% 29.83 in 0.9 mi West 16.1 mph - N/A Snow Snow
5:37 PM 26.6 °F 14.7 °F 24.8 °F 93% 29.86 in 1.2 mi West 15.0 mph - N/A Snow Snow
6:00 PM 26.6 °F 14.3 °F 26.6 °F 100% 29.86 in 1.2 mi West 16.1 mph - N/A Snow Snow
6:09 PM 26.6 °F 14.3 °F 24.8 °F 93% 29.86 in 2.5 mi West 16.1 mph - N/A Snow Light Snow
6:19 PM 26.6 °F 13.8 °F 24.8 °F 93% 29.89 in 4.3 mi West 17.3 mph - N/A Snow Light Snow
7:00 PM 26.6 °F 15.2 °F 23.0 °F 86% 29.89 in 6.2 mi WNW 13.8 mph 25.3 mph N/A Snow Light Snow
8:00 PM 26.6 °F 15.2 °F 19.4 °F 74% 29.92 in 6.2 mi West 13.8 mph - N/A   Mostly Cloudy
9:00 PM 26.6 °F 15.7 °F 19.4 °F 74% 29.95 in 6.2 mi WNW 12.7 mph - N/A   Mostly Cloudy
10:00 PM 24.8 °F 16.9 °F 19.4 °F 80% 29.95 in 6.2 mi WNW 6.9 mph - N/A   Overcast
11:00 PM 24.8 °F 16.1 °F 15.8 °F 69% 29.98 in 6.2 mi West 8.1 mph - N/A   Mostly Cloudy